Tracking 19817 objects as of 17-Aug-2019
HD Live streaming from Space Station
objects crossing your sky now

COSMOS 2251 DEB

Track COSMOS 2251 DEB now!
10-day predictions


NORAD ID: 33948
Int'l Code: 1993-036FD
Perigee: 771.5 km
Apogee: 804.8 km
Inclination: 74.0 °
Period: 100.5 minutes
Semi major axis: 7159 km
RCS: 0.032 m2 (small)
Launch date: June 16, 1993
Source: Commonwealth of Independent States (former USSR) (CIS)
Launch site: PLESETSK MISSILE AND SPACE COMPLEX (PKMTR)

Note: This is SATELLITE DEBRIS
aabbcc
Your satellite tracking list
Your tracking list is empty




NASA's NSSDC Master Catalog

Two Line Element Set (TLE):
1 33948U 93036FD  19228.92410279 +.00000028 +00000-0 +19391-4 0  9991
2 33948 074.0349 211.2565 0023297 133.7662 226.5423 14.33211908549159
Source of the keplerian elements: AFSPC